CW9600 Weather Reports


Display with metric or nautical units.
time (UTC)temp
F
wind
direction
speed
MPH
gust
MPH
rain 1hr
in
rain 24hr
in
rain mn
in
humidity
%
barometer
mb
20260504160346 58 166 5.0 7.0 0.00 0.00 0.00 66 1010.6
20260504160248 59 165 5.0 7.0 0.00 0.00 0.00 66 1010.6
20260504160208 59 166 5.0 7.0 0.00 0.00 0.00 66 1010.6
20260504151146 58 164 4.0 8.0 0.00 0.00 0.00 64 1010.6
20260504151047 58 159 3.0 8.0 0.00 0.00 0.00 65 1010.6
20260504150946 58 156 4.0 9.0 0.00 0.00 0.00 63 1010.6
20260504150846 58 155 4.0 10.0 0.00 0.00 0.00 64 1010.6
20260504150746 58 151 4.0 10.0 0.00 0.00 0.00 63 1010.6
20260504150646 58 145 4.0 10.0 0.00 0.00 0.00 63 1010.6
20260504150546 58 141 4.0 10.0 0.00 0.00 0.00 64 1010.6
20260504150446 59 137 4.0 10.0 0.00 0.00 0.00 64 1010.6
20260504150346 59 139 4.0 10.0 0.00 0.00 0.00 64 1010.6
20260504150247 59 147 4.0 10.0 0.00 0.00 0.00 64 1010.6
20260504150146 59 149 4.0 10.0 0.00 0.00 0.00 63 1010.6
20260504141246 58 161 3.0 7.0 0.00 0.00 0.00 64 1010.6
20260504141146 58 169 3.0 7.0 0.00 0.00 0.00 64 1010.6
20260504141107 58 173 3.0 7.0 0.00 0.00 0.00 64 1010.6
20260504140946 58 173 3.0 7.0 0.00 0.00 0.00 67 1010.6
20260504140846 58 169 3.0 7.0 0.00 0.00 0.00 67 1010.6
20260504140746 58 163 4.0 7.0 0.00 0.00 0.00 68 1010.6
20260504140646 58 152 4.0 7.0 0.00 0.00 0.00 68 1010.6
20260504140546 58 144 4.0 7.0 0.00 0.00 0.00 67 1010.6
20260504140446 58 135 4.0 7.0 0.00 0.00 0.00 66 1010.6
20260504140407 58 127 4.0 7.0 0.00 0.00 0.00 66 1010.6
20260504140246 58 123 5.0 7.0 0.00 0.00 0.00 67 1010.6
20260504140146 58 118 5.0 7.0 0.00 0.00 0.00 68 1010.6
20260504130746 56 122 3.0 7.0 0.00 0.00 0.00 68 1010.6
20260504130646 56 131 3.0 9.0 0.00 0.00 0.00 70 1010.6
20260504130547 56 134 4.0 9.0 0.00 0.00 0.00 70 1010.6
20260504130448 56 141 4.0 9.0 0.00 0.00 0.00 70 1010.6
20260504130347 56 147 5.0 9.0 0.00 0.00 0.00 71 1010.6
20260504130247 56 154 4.0 10.0 0.00 0.00 0.00 71 1010.6
20260504130148 56 160 4.0 10.0 0.00 0.00 0.00 72 1010.6
20260504120247 53 175 3.0 7.0 0.00 0.00 0.00 76 1010.6
20260504120147 53 176 3.0 7.0 0.00 0.00 0.00 76 1010.6
20260504110646 51 81 2.0 6.0 0.00 0.00 0.00 80 1010.6
20260504110607 51 82 3.0 6.0 0.00 0.00 0.00 80 1010.6
20260504110447 51 84 3.0 6.0 0.00 0.00 0.00 80 1010.6
20260504110346 51 88 3.0 6.0 0.00 0.00 0.00 80 1010.6
20260504110247 51 88 3.0 6.0 0.00 0.00 0.00 80 1010.6
20260504110148 51 89 3.0 6.0 0.00 0.00 0.00 80 1010.6
20260504100547 50 75 4.0 8.0 0.00 0.00 0.00 84 1010.6
20260504100446 50 80 4.0 8.0 0.00 0.00 0.00 84 1010.6
20260504100346 50 83 4.0 8.0 0.00 0.00 0.00 84 1010.6
20260504100247 50 88 4.0 8.0 0.00 0.00 0.00 84 1010.6
20260504100208 50 88 4.0 7.0 0.00 0.00 0.00 84 1010.6
20260504100108 50 86 4.0 7.0 0.00 0.00 0.00 84 1010.6
20260504090108 48 46 4.0 8.0 0.00 0.00 0.00 88 1010.6
20260504081946 48 42 5.0 9.0 0.00 0.00 0.00 88 1010.6
20260504081908 48 41 5.0 9.0 0.00 0.00 0.00 88 1010.6
20260504081747 48 41 5.0 9.0 0.00 0.00 0.00 88 1010.6
20260504081707 48 41 5.0 9.0 0.00 0.00 0.00 88 1010.6
20260504081608 48 43 5.0 9.0 0.00 0.00 0.00 88 1010.6
20260504081446 48 43 5.0 9.0 0.00 0.00 0.00 88 1010.6
20260504081346 48 45 4.0 9.0 0.00 0.00 0.00 88 1010.6
20260504081247 48 47 5.0 7.0 0.00 0.00 0.00 89 1010.6
20260504081147 48 47 4.0 7.0 0.00 0.00 0.00 89 1010.6
20260504081046 48 48 4.0 7.0 0.00 0.00 0.00 89 1010.6
20260504080946 48 48 4.0 7.0 0.00 0.00 0.00 89 1010.6
20260504080846 48 51 4.0 7.0 0.00 0.00 0.00 89 1010.6
20260504080746 48 52 4.0 7.0 0.00 0.00 0.00 89 1010.6
20260504080646 48 53 4.0 7.0 0.00 0.00 0.00 89 1010.6
20260504080546 48 54 4.0 7.0 0.00 0.00 0.00 89 1010.6
20260504080447 48 55 4.0 7.0 0.00 0.00 0.00 89 1010.6
20260504080347 48 55 4.0 7.0 0.00 0.00 0.00 89 1010.6
20260504080247 48 55 3.0 7.0 0.00 0.00 0.00 89 1010.6
20260504080147 48 55 4.0 7.0 0.00 0.00 0.00 89 1010.6
20260504080109 48 55 4.0 7.0 0.00 0.00 0.00 89 1010.6
20260504070346 47 38 6.0 11.0 0.00 0.03 0.00 91 1010.6
20260504070308 47 39 5.0 11.0 0.00 0.03 0.00 91 1010.6
20260504070148 47 38 5.0 9.0 0.00 0.03 0.00 91 1010.6
20260504070108 47 38 6.0 9.0 0.00 0.03 0.00 91 1010.6
20260504060246 47 44 4.0 6.0 0.00 0.04 0.00 93 1010.6
20260504060146 47 46 4.0 8.0 0.00 0.04 0.00 93 1010.6
20260504060108 47 47 4.0 8.0 0.00 0.04 0.00 93 1010.6
20260504050746 46 34 7.0 12.0 0.00 0.07 0.00 93 1010.6
20260504050647 46 34 7.0 12.0 0.00 0.07 0.00 93 1010.6
20260504050547 46 34 7.0 12.0 0.00 0.07 0.00 93 1010.6
20260504050447 46 33 7.0 12.0 0.00 0.07 0.00 93 1010.6
20260504050346 46 33 7.0 12.0 0.00 0.07 0.00 93 1010.6
20260504050246 46 33 6.0 12.0 0.00 0.07 0.00 93 1010.6
20260504050147 46 32 6.0 12.0 0.00 0.07 0.00 94 1010.6
20260504050108 46 32 6.0 11.0 0.00 0.07 0.00 94 1010.6
20260504045947 46 33 6.0 10.0 0.00 0.07 0.00 94 1010.6
20260504045847 46 34 6.0 10.0 0.00 0.07 0.00 94 1010.6
20260504045747 46 34 6.0 10.0 0.00 0.07 0.00 94 1010.6
20260504045646 46 35 6.0 10.0 0.00 0.07 0.00 94 1010.6
20260504045546 46 36 6.0 10.0 0.00 0.07 0.00 94 1010.6
20260504045447 46 36 5.0 10.0 0.00 0.07 0.00 94 1010.6
20260504045347 46 37 5.0 10.0 0.00 0.07 0.00 94 1010.6
20260504045308 46 37 6.0 10.0 0.00 0.07 0.00 94 1010.6
20260504045147 46 38 6.0 10.0 0.00 0.07 0.00 94 1010.6
20260504045047 46 40 6.0 10.0 0.00 0.07 0.00 94 1010.6
20260504044946 46 39 6.0 10.0 0.00 0.07 0.00 94 1010.6
20260504044846 46 38 6.0 9.0 0.00 0.07 0.00 94 1010.6
20260504044746 46 38 5.0 9.0 0.00 0.07 0.00 94 1010.6
20260504044647 46 38 6.0 9.0 0.00 0.07 0.00 94 1010.6
20260504044546 46 37 6.0 9.0 0.00 0.07 0.00 94 1010.6
20260504044446 46 38 6.0 9.0 0.00 0.07 0.00 94 1010.6
20260504044347 46 39 6.0 9.0 0.00 0.07 0.00 94 1010.6
20260504044247 46 40 6.0 9.0 0.00 0.07 0.00 94 1010.6
20260504044148 46 39 6.0 9.0 0.00 0.07 0.00 94 1010.6
20260504044107 46 39 6.0 9.0 0.00 0.07 0.00 94 1010.6
20260504043947 46 40 6.0 9.0 0.00 0.07 0.00 94 1010.6
20260504043847 46 40 6.0 9.0 0.00 0.07 0.00 94 1010.6
20260504043746 46 40 6.0 9.0 0.00 0.07 0.00 94 1010.6
20260504043647 46 40 6.0 9.0 0.00 0.07 0.00 94 1010.6
20260504043547 46 40 6.0 9.0 0.00 0.07 0.00 94 1010.6
20260504043447 46 39 6.0 9.0 0.00 0.07 0.00 94 1010.6
20260504043347 46 39 6.0 9.0 0.00 0.07 0.00 94 1010.6
20260504043247 46 38 6.0 9.0 0.00 0.07 0.00 94 1010.6
20260504043146 46 38 6.0 9.0 0.00 0.07 0.00 94 1010.6
20260504043047 46 38 6.0 9.0 0.00 0.07 0.00 94 1010.6
20260504042947 46 39 6.0 9.0 0.00 0.07 0.00 94 1010.6
20260504042908 46 39 5.0 9.0 0.00 0.07 0.00 94 1010.6
20260504042748 46 41 5.0 9.0 0.00 0.07 0.00 94 1010.6
20260504042647 46 42 5.0 9.0 0.00 0.07 0.00 94 1010.6
20260504042547 46 43 5.0 8.0 0.00 0.07 0.00 94 1010.6
20260504042447 47 46 5.0 8.0 0.00 0.07 0.00 94 1010.6
20260504042408 46 47 5.0 8.0 0.00 0.07 0.00 94 1010.6
20260504042246 46 48 5.0 8.0 0.00 0.07 0.00 94 1010.6
20260504042208 46 48 5.0 9.0 0.00 0.07 0.00 94 1010.6
20260504042047 46 48 5.0 10.0 0.00 0.07 0.00 94 1010.6
20260504041947 46 48 5.0 10.0 0.00 0.07 0.00 94 1010.6
20260504041847 46 47 6.0 10.0 0.00 0.07 0.00 94 1010.6
20260504041746 46 47 6.0 10.0 0.00 0.07 0.00 94 1010.6
20260504041648 46 48 5.0 10.0 0.00 0.07 0.00 94 1010.6
20260504041608 46 48 6.0 10.0 0.00 0.07 0.00 94 1010.6
20260504041508 47 47 6.0 10.0 0.00 0.07 0.00 94 1010.6
20260504041346 46 46 6.0 10.0 0.00 0.07 0.00 94 1010.6
20260504041247 46 46 5.0 10.0 0.00 0.07 0.00 94 1010.6
20260504041147 47 46 5.0 10.0 0.00 0.07 0.00 94 1010.6
20260504041108 46 46 5.0 10.0 0.00 0.07 0.00 94 1010.6
20260504040947 46 44 5.0 10.0 0.00 0.07 0.00 94 1010.6
20260504040847 47 43 5.0 10.0 0.00 0.07 0.00 94 1010.6
20260504040808 47 43 5.0 9.0 0.00 0.07 0.00 94 1010.6
20260504040647 46 41 5.0 9.0 0.00 0.07 0.00 94 1010.6
20260504040546 46 40 5.0 9.0 0.00 0.07 0.00 94 1010.6
20260504040508 46 40 5.0 9.0 0.00 0.07 0.00 94 1010.6
20260504040347 46 40 5.0 9.0 0.00 0.07 0.00 94 1010.6
20260504040308 46 39 6.0 9.0 0.00 0.07 0.00 94 1010.6
20260504040146 46 37 6.0 9.0 0.00 0.07 0.00 94 1010.6
20260504040047 46 37 6.0 9.0 0.00 0.07 0.00 94 1010.6
20260504035947 46 38 6.0 9.0 0.00 0.07 0.00 94 1010.6
20260504035847 47 41 6.0 9.0 0.00 0.07 0.00 94 1010.6
20260504035808 47 42 6.0 9.0 0.00 0.07 0.00 94 1010.6
20260504035647 46 44 6.0 9.0 0.00 0.07 0.00 94 1010.6
20260504035547 46 43 6.0 9.0 0.00 0.07 0.00 94 1010.6
20260504035447 47 42 6.0 11.0 0.00 0.07 0.00 94 1010.6
20260504035347 46 40 6.0 11.0 0.00 0.07 0.00 94 1010.6
20260504035247 47 40 6.0 11.0 0.00 0.07 0.00 94 1010.6
20260504035208 47 41 6.0 11.0 0.00 0.07 0.00 94 1010.6
20260504035047 47 40 6.0 11.0 0.00 0.07 0.00 94 1010.6
20260504034947 47 39 6.0 11.0 0.00 0.07 0.00 94 1010.6
20260504034846 47 37 6.0 11.0 0.00 0.07 0.00 94 1010.6
20260504034747 47 35 6.0 11.0 0.00 0.07 0.00 94 1010.6
20260504034647 47 33 7.0 11.0 0.00 0.07 0.00 94 1010.6
20260504034547 47 32 6.0 11.0 0.00 0.07 0.00 94 1010.6
20260504034447 47 33 6.0 11.0 0.00 0.07 0.00 94 1010.6
20260504034408 47 33 6.0 10.0 0.00 0.07 0.00 94 1010.6
20260504034308 47 34 6.0 10.0 0.00 0.07 0.00 94 1010.6
20260504034207 47 33 6.0 10.0 0.00 0.07 0.00 94 1010.6
20260504034047 47 33 6.0 10.0 0.00 0.07 0.00 94 1010.6
20260504033946 47 33 6.0 10.0 0.00 0.07 0.00 94 1010.6
20260504033847 47 33 6.0 10.0 0.00 0.07 0.00 94 1010.6
20260504033747 47 32 6.0 10.0 0.00 0.07 0.00 94 1010.6
20260504033708 47 34 6.0 9.0 0.00 0.07 0.00 94 1010.6
20260504033547 47 36 6.0 10.0 0.00 0.07 0.00 94 1010.6
20260504033508 47 35 6.0 10.0 0.00 0.07 0.00 94 1010.6
20260504033408 47 34 5.0 10.0 0.00 0.07 0.00 94 1010.6
20260504033247 47 34 5.0 10.0 0.00 0.07 0.00 94 1010.6
20260504033147 47 36 5.0 10.0 0.00 0.08 0.00 94 1010.6
20260504033108 47 38 5.0 10.0 0.00 0.08 0.00 94 1010.6
20260504032947 47 42 5.0 10.0 0.00 0.08 0.00 94 1010.6
20260504032847 47 44 5.0 10.0 0.00 0.08 0.00 94 1010.6
20260504032747 47 46 5.0 10.0 0.00 0.08 0.00 94 1010.6
20260504032648 47 47 5.0 10.0 0.00 0.08 0.00 94 1010.6
20260504032547 47 48 5.0 9.0 0.00 0.08 0.00 94 1010.6
20260504032448 47 51 5.0 9.0 0.00 0.08 0.00 94 1010.6
20260504032348 47 53 5.0 11.0 0.00 0.08 0.00 94 1010.6
20260504032247 47 55 5.0 11.0 0.00 0.08 0.00 94 1010.6
20260504032208 47 55 6.0 11.0 0.00 0.08 0.00 94 1010.6
20260504032109 47 55 6.0 11.0 0.00 0.08 0.00 94 1010.6
20260504031947 47 53 6.0 11.0 0.00 0.08 0.00 94 1010.6
20260504031847 47 51 6.0 11.0 0.00 0.08 0.00 94 1010.6
20260504031808 47 52 6.0 11.0 0.00 0.08 0.00 94 1010.6
20260504031647 47 50 6.0 11.0 0.00 0.08 0.00 95 1010.6
20260504031547 47 50 5.0 11.0 0.00 0.08 0.00 95 1010.6
20260504031447 47 48 5.0 11.0 0.00 0.08 0.00 95 1010.6
20260504031348 47 46 5.0 11.0 0.00 0.08 0.00 95 1010.6
20260504031247 47 45 6.0 11.0 0.00 0.08 0.00 95 1010.6
20260504031209 47 43 6.0 11.0 0.00 0.08 0.00 95 1010.6
20260504031047 47 40 6.0 11.0 0.00 0.09 0.00 95 1010.6
20260504030949 47 38 6.0 11.0 0.00 0.09 0.00 95 1010.6
20260504030847 47 38 6.0 11.0 0.00 0.09 0.00 95 1010.6
20260504030747 47 36 6.0 11.0 0.00 0.09 0.00 95 1010.6
20260504030708 47 34 6.0 11.0 0.00 0.10 0.00 95 1010.6
20260504030547 47 34 7.0 11.0 0.00 0.12 0.00 95 1010.6
20260504030448 47 33 7.0 11.0 0.00 0.13 0.00 95 1010.6
20260504030347 47 33 7.0 11.0 0.00 0.15 0.00 95 1010.6
20260504030247 47 30 7.0 11.0 0.00 0.16 0.00 95 1010.6
20260504030148 47 29 7.0 11.0 0.00 0.17 0.00 95 1010.6
20260504030047 47 28 7.0 14.0 0.00 0.17 0.00 95 1010.6
20260504025949 47 27 8.0 14.0 0.00 0.18 0.00 95 1010.6
20260504025848 47 27 8.0 14.0 0.00 0.19 0.00 95 1010.6
20260504025748 47 27 8.0 14.0 0.00 0.20 0.00 95 1010.6
20260504025647 47 26 8.0 14.0 0.00 0.20 0.00 95 1010.6
20260504025548 47 26 9.0 14.0 0.00 0.22 0.00 95 1010.6
20260504025449 47 26 9.0 14.0 0.00 0.23 0.00 95 1010.6
20260504025408 47 26 8.0 14.0 0.00 0.23 0.00 95 1010.6
20260504025247 47 28 8.0 14.0 0.00 0.23 0.00 95 1010.6
20260504025148 47 28 8.0 14.0 0.00 0.24 0.00 95 1010.6
20260504025047 47 29 8.0 12.0 0.00 0.24 0.00 95 1010.6
20260504024947 47 31 8.0 12.0 0.00 0.24 0.00 95 1010.6
20260504024847 47 31 8.0 12.0 0.00 0.24 0.00 95 1010.6
20260504024747 47 31 7.0 12.0 0.00 0.24 0.00 95 1010.6
20260504024647 47 33 7.0 12.0 0.00 0.24 0.00 95 1010.6
20260504024547 47 34 7.0 12.0 0.00 0.24 0.00 95 1010.6
20260504024447 47 33 7.0 10.0 0.00 0.24 0.00 95 1010.6
20260504024348 47 34 7.0 10.0 0.00 0.24 0.00 95 1010.6
20260504024308 47 34 7.0 10.0 0.00 0.24 0.00 95 1010.6
20260504024147 47 34 7.0 10.0 0.00 0.24 0.00 95 1010.6
20260504024047 47 33 7.0 10.0 0.00 0.24 0.00 95 1010.6
20260504023947 47 34 7.0 10.0 0.00 0.24 0.00 95 1010.6
20260504023847 47 33 7.0 10.0 0.00 0.24 0.00 95 1010.6
20260504023748 47 33 7.0 10.0 0.00 0.24 0.00 95 1010.6
20260504023709 47 34 7.0 10.0 0.00 0.24 0.00 95 1010.6
20260504023548 47 33 7.0 11.0 0.00 0.24 0.00 95 1010.6
20260504023447 47 35 7.0 11.0 0.00 0.24 0.00 95 1010.6
20260504023347 47 34 6.0 11.0 0.00 0.25 0.00 95 1010.6
20260504023247 47 35 6.0 11.0 0.00 0.25 0.00 95 1010.6
20260504023147 47 35 6.0 11.0 0.00 0.26 0.00 95 1010.6
20260504023047 47 36 6.0 11.0 0.00 0.26 0.00 95 1010.6
20260504022947 47 37 6.0 11.0 0.00 0.26 0.00 95 1010.6
20260504022847 47 38 6.0 11.0 0.00 0.27 0.00 95 1010.6
20260504022808 47 39 6.0 11.0 0.00 0.27 0.00 95 1010.6
20260504022647 47 40 6.0 9.0 0.00 0.28 0.00 95 1010.6
20260504022547 47 39 6.0 10.0 0.00 0.28 0.00 95 1010.6
20260504022447 47 40 6.0 10.0 0.00 0.28 0.00 95 1010.6
20260504022408 47 40 6.0 10.0 0.00 0.28 0.00 95 1010.6
20260504022247 47 39 6.0 10.0 0.00 0.28 0.00 95 1010.6
20260504022147 47 40 6.0 10.0 0.00 0.28 0.00 95 1010.6
20260504022047 47 40 6.0 11.0 0.00 0.28 0.00 95 1010.6
20260504021947 47 40 6.0 11.0 0.00 0.28 0.00 95 1010.6
20260504021847 47 40 6.0 11.0 0.00 0.28 0.00 95 1010.6
20260504021747 47 40 6.0 11.0 0.00 0.28 0.00 95 1010.6
20260504021647 47 39 6.0 11.0 0.00 0.28 0.00 95 1010.6
20260504021547 47 39 6.0 11.0 0.00 0.28 0.00 95 1010.6
20260504021448 47 38 6.0 11.0 0.00 0.28 0.00 95 1010.6
20260504021349 47 40 6.0 11.0 0.00 0.28 0.00 95 1010.6
20260504021247 47 40 6.0 11.0 0.00 0.28 0.00 95 1010.6
20260504021147 47 40 5.0 11.0 0.00 0.28 0.00 95 1010.6
20260504021108 47 39 5.0 10.0 0.00 0.28 0.00 95 1010.6
20260504020948 47 40 5.0 9.0 0.00 0.28 0.00 95 1010.6
20260504020847 47 41 4.0 9.0 0.00 0.28 0.00 95 1010.6
20260504020748 47 42 4.0 9.0 0.00 0.28 0.00 95 1010.6
20260504020648 47 42 4.0 9.0 0.00 0.28 0.00 95 1010.6
20260504020547 47 43 4.0 9.0 0.00 0.28 0.00 95 1010.6
20260504020447 47 45 4.0 9.0 0.00 0.28 0.00 95 1010.6
20260504020347 47 44 4.0 9.0 0.00 0.28 0.00 95 1010.6
20260504020247 47 44 4.0 9.0 0.00 0.28 0.00 95 1010.6
20260504020147 47 43 4.0 9.0 0.00 0.28 0.00 95 1010.6
20260504020047 47 43 4.0 9.0 0.00 0.28 0.00 95 1010.6
20260504015946 47 43 4.0 9.0 0.00 0.28 0.00 95 1010.6
20260504015847 47 42 4.0 9.0 0.00 0.28 0.00 95 1010.6
20260504015809 47 43 4.0 9.0 0.00 0.28 0.00 95 1010.6
20260504015647 47 46 4.0 7.0 0.00 0.28 0.00 95 1010.6
20260504015547 47 48 4.0 7.0 0.00 0.28 0.00 95 1010.6
20260504015447 47 48 4.0 7.0 0.00 0.28 0.00 95 1010.6
20260504015348 47 47 4.0 8.0 0.00 0.28 0.00 95 1010.6
20260504015247 47 48 4.0 8.0 0.00 0.28 0.00 95 1010.6
20260504015208 47 49 4.0 8.0 0.00 0.28 0.00 95 1010.6
20260504015047 47 50 5.0 8.0 0.00 0.28 0.00 95 1010.6
20260504015009 47 50 5.0 8.0 0.00 0.28 0.00 95 1010.6
20260504014848 47 49 5.0 8.0 0.00 0.28 0.00 95 1010.6
20260504014748 47 48 5.0 8.0 0.00 0.28 0.00 95 1010.6
20260504014647 47 46 5.0 8.0 0.00 0.28 0.00 95 1010.6
20260504014608 47 44 5.0 8.0 0.00 0.28 0.00 95 1010.6
20260504014509 47 42 5.0 10.0 0.00 0.28 0.00 95 1010.6
20260504014348 47 40 5.0 10.0 0.00 0.28 0.00 95 1010.6
20260504014308 47 39 5.0 10.0 0.00 0.28 0.00 95 1010.6
20260504014208 47 38 5.0 10.0 0.00 0.28 0.00 95 1010.6
20260504014047 47 35 5.0 10.0 0.00 0.28 0.00 95 1010.6
20260504013947 47 35 5.0 10.0 0.00 0.28 0.00 95 1010.6
20260504013848 47 34 5.0 10.0 0.00 0.28 0.00 95 1010.6
20260504013747 47 32 6.0 10.0 0.00 0.28 0.00 95 1010.6
20260504013647 47 31 6.0 10.0 0.00 0.28 0.00 95 1010.6
20260504013547 47 31 6.0 10.0 0.00 0.28 0.00 95 1010.6
20260504013447 47 31 6.0 8.0 0.00 0.28 0.00 95 1010.6
20260504013408 47 29 6.0 8.0 0.00 0.28 0.00 95 1010.6
20260504013247 47 29 6.0 9.0 0.00 0.28 0.00 95 1010.6
20260504013148 47 28 6.0 9.0 0.00 0.28 0.00 95 1010.6
20260504013048 47 28 6.0 9.0 0.00 0.28 0.00 95 1010.6
20260504012948 47 27 6.0 9.0 0.00 0.28 0.00 95 1010.6
20260504012847 47 28 6.0 10.0 0.00 0.28 0.00 95 1010.6
20260504012747 47 29 6.0 10.0 0.00 0.28 0.00 95 1010.6
20260504012708 47 29 6.0 10.0 0.00 0.29 0.00 95 1010.6
20260504012547 47 29 7.0 10.0 0.00 0.29 0.00 95 1010.6
20260504012508 47 29 7.0 10.0 0.00 0.30 0.00 95 1010.6
20260504012347 47 29 7.0 10.0 0.00 0.30 0.00 95 1010.6
20260504012248 47 29 6.0 10.0 0.00 0.30 0.00 95 1010.6
20260504012147 47 30 7.0 10.0 0.00 0.31 0.00 95 1010.6
20260504012048 47 29 7.0 10.0 0.00 0.31 0.00 95 1010.6
20260504011947 47 30 7.0 10.0 0.00 0.31 0.00 95 1010.6
20260504011847 47 30 7.0 10.0 0.00 0.31 0.00 95 1010.6
20260504011747 47 30 6.0 10.0 0.00 0.31 0.00 95 1010.6
20260504011647 47 30 6.0 10.0 0.00 0.31 0.00 95 1010.6
20260504011547 47 29 6.0 9.0 0.00 0.31 0.00 96 1010.6
20260504011447 47 29 6.0 9.0 0.00 0.31 0.00 96 1010.6
20260504011347 47 29 6.0 9.0 0.00 0.31 0.00 96 1010.6
20260504011308 47 29 6.0 9.0 0.00 0.31 0.00 96 1010.6
20260504011208 47 30 6.0 9.0 0.00 0.31 0.00 96 1010.6
20260504011108 47 31 6.0 9.0 0.00 0.31 0.00 96 1010.6
20260504011008 47 31 6.0 9.0 0.00 0.31 0.00 96 1010.6
20260504010847 47 32 5.0 9.0 0.00 0.31 0.00 96 1010.6
20260504010747 47 31 5.0 9.0 0.00 0.31 0.00 96 1010.6
20260504010647 47 31 5.0 9.0 0.00 0.31 0.00 96 1010.6
20260504010547 47 30 5.0 8.0 0.00 0.31 0.00 95 1010.6
20260504010447 47 30 5.0 8.0 0.00 0.31 0.00 95 1010.6
20260504010348 47 29 5.0 8.0 0.00 0.31 0.00 95 1010.6
20260504010248 47 29 5.0 8.0 0.00 0.31 0.00 96 1010.6
20260504010148 47 28 5.0 8.0 0.00 0.31 0.00 96 1010.6
20260504010048 47 28 5.0 8.0 0.00 0.31 0.00 96 1010.6
20260504005947 47 29 6.0 9.0 0.00 0.31 0.00 96 1010.6
20260504005908 47 29 6.0 9.0 0.00 0.31 0.00 96 1010.6
20260504005747 47 29 6.0 9.0 0.00 0.31 0.00 96 1010.6
20260504005647 47 30 6.0 9.0 0.00 0.31 0.00 96 1010.6
20260504005548 47 31 6.0 9.0 0.00 0.31 0.00 95 1010.6
20260504005448 47 33 6.0 9.0 0.00 0.31 0.00 96 1010.6
20260504005347 47 34 6.0 10.0 0.00 0.31 0.00 96 1010.6
20260504005248 47 35 7.0 10.0 0.00 0.31 0.00 95 1010.6
20260504005209 47 36 6.0 10.0 0.00 0.31 0.00 95 1010.6
20260504005047 47 35 6.0 10.0 0.00 0.31 0.00 95 1010.6
20260504005008 47 36 6.0 10.0 0.00 0.31 0.00 95 1010.6
20260504004847 47 36 6.0 10.0 0.00 0.31 0.00 95 1010.6
20260504004748 47 37 6.0 10.0 0.00 0.31 0.00 95 1010.6
20260504004647 47 39 6.0 10.0 0.00 0.31 0.00 95 1010.6
20260504004548 47 40 6.0 10.0 0.00 0.31 0.00 95 1010.6
20260504004510 47 39 6.0 10.0 0.00 0.31 0.00 95 1010.6
20260504004409 47 41 7.0 10.0 0.00 0.31 0.00 95 1010.6
20260504004247 47 37 7.0 12.0 0.00 0.31 0.00 95 1010.6
20260504004147 47 35 7.0 12.0 0.00 0.31 0.00 95 1010.6
20260504004047 47 34 7.0 12.0 0.00 0.31 0.00 95 1010.6
20260504003948 47 32 8.0 12.0 0.00 0.31 0.00 95 1010.6
20260504003848 47 30 8.0 12.0 0.00 0.31 0.00 95 1010.6
20260504003748 47 27 8.0 12.0 0.00 0.31 0.00 95 1010.6
20260504003648 47 25 8.0 12.0 0.00 0.31 0.00 95 1010.6
20260504003548 47 23 9.0 12.0 0.00 0.31 0.00 95 1010.6
20260504003447 47 23 9.0 12.0 0.00 0.31 0.00 95 1010.6
20260504003347 47 21 9.0 12.0 0.00 0.31 0.00 95 1010.6
20260504003248 47 22 9.0 12.0 0.00 0.31 0.00 95 1010.6
20260504003147 47 23 8.0 12.0 0.00 0.31 0.00 95 1010.6
20260504003109 47 23 8.0 12.0 0.00 0.31 0.00 95 1010.6
20260504002948 47 24 8.0 12.0 0.00 0.31 0.00 95 1010.6
20260504002848 47 26 8.0 13.0 0.00 0.31 0.00 95 1010.6
20260504002808 47 26 8.0 13.0 0.00 0.31 0.00 95 1010.6
20260504002648 47 28 8.0 13.0 0.00 0.31 0.00 95 1010.6
20260504002547 47 28 8.0 13.0 0.00 0.31 0.00 95 1010.6
20260504002447 47 26 8.0 13.0 0.00 0.31 0.00 95 1010.6
20260504002349 47 27 9.0 13.0 0.00 0.31 0.00 95 1010.6
20260504002248 47 26 9.0 13.0 0.00 0.31 0.00 95 1010.6
20260504002147 47 27 9.0 14.0 0.00 0.31 0.00 95 1010.6
20260504002048 47 27 9.0 14.0 0.00 0.31 0.00 95 1010.6
20260504001947 47 25 9.0 14.0 0.00 0.31 0.00 95 1010.6
20260504001847 47 25 9.0 14.0 0.00 0.31 0.00 95 1010.6
20260504001747 47 25 9.0 14.0 0.00 0.31 0.00 95 1010.6
20260504001648 47 25 8.0 14.0 0.00 0.31 0.00 95 1010.6
20260504001608 47 24 9.0 14.0 0.00 0.31 0.00 95 1010.6
20260504001447 48 26 9.0 14.0 0.00 0.31 0.00 95 1010.6
20260504001347 47 26 9.0 14.0 0.00 0.31 0.00 95 1010.6
20260504001248 47 27 8.0 14.0 0.00 0.31 0.00 95 1010.6
20260504001147 48 26 8.0 13.0 0.00 0.31 0.00 95 1010.6
20260504001047 48 26 8.0 13.0 0.00 0.31 0.00 95 1010.6
20260504001008 48 26 8.0 13.0 0.00 0.31 0.00 95 1010.6
20260504000847 48 25 8.0 13.0 0.00 0.31 0.00 95 1010.6
20260504000747 48 25 8.0 13.0 0.00 0.31 0.00 95 1010.6
20260504000648 48 25 8.0 13.0 0.00 0.31 0.00 95 1010.6
20260504000548 48 25 8.0 13.0 0.00 0.31 0.00 95 1010.6
20260504000447 48 25 8.0 13.0 0.00 0.31 0.00 95 1010.6
20260504000347 48 25 8.0 12.0 0.00 0.31 0.00 95 1010.6
20260504000247 48 25 8.0 12.0 0.00 0.31 0.00 95 1010.6
20260504000148 48 24 8.0 12.0 0.00 0.31 0.00 95 1010.6
20260504000108 48 25 8.0 12.0 0.00 0.31 0.00 95 1010.6
20260503235947 48 25 8.0 12.0 0.00 0.31 0.00 95 1010.6
20260503235847 48 25 8.0 12.0 0.00 0.31 0.00 95 1010.6
20260503235747 48 25 8.0 12.0 0.00 0.31 0.00 95 1010.6
20260503235647 48 25 8.0 12.0 0.00 0.31 0.00 95 1010.6
20260503235549 48 26 8.0 12.0 0.00 0.31 0.00 95 1010.6
20260503235448 48 25 8.0 12.0 0.00 0.31 0.00 95 1010.6
20260503235350 48 24 8.0 12.0 0.00 0.31 0.00 95 1010.6
20260503235248 48 25 8.0 12.0 0.00 0.31 0.00 95 1010.6
20260503235210 48 24 8.0 11.0 0.00 0.31 0.00 95 1010.6
20260503235047 48 23 8.0 11.0 0.00 0.31 0.00 95 1010.6
20260503234947 48 23 8.0 11.0 0.00 0.31 0.00 95 1010.6
20260503234848 48 24 8.0 13.0 0.00 0.31 0.00 95 1010.6
20260503234747 48 25 8.0 13.0 0.00 0.31 0.00 95 1010.6
20260503234647 48 25 8.0 13.0 0.00 0.31 0.00 95 1010.6
20260503234547 48 26 8.0 13.0 0.00 0.31 0.00 95 1010.6
20260503234447 48 28 7.0 13.0 0.00 0.31 0.00 95 1010.6
20260503234348 48 28 7.0 13.0 0.00 0.31 0.00 95 1010.6
20260503234248 48 28 7.0 13.0 0.00 0.31 0.00 95 1010.6
20260503234148 48 29 7.0 13.0 0.00 0.31 0.00 95 1010.6
20260503234048 48 29 7.0 13.0 0.00 0.31 0.00 95 1010.6
20260503233947 48 29 7.0 13.0 0.00 0.31 0.00 95 1010.6
20260503233847 48 29 7.0 11.0 0.00 0.31 0.00 95 1010.6
20260503233808 48 28 7.0 11.0 0.00 0.31 0.00 95 1010.6
20260503233647 48 28 7.0 12.0 0.00 0.31 0.00 95 1010.6
20260503233547 48 27 7.0 12.0 0.00 0.31 0.00 95 1010.6
20260503233449 48 27 7.0 12.0 0.00 0.31 0.00 95 1010.6
20260503233348 48 27 7.0 12.0 0.00 0.31 0.00 95 1010.6
20260503233308 48 27 7.0 12.0 0.00 0.31 0.00 95 1010.6
20260503233147 48 28 7.0 12.0 0.00 0.31 0.00 95 1010.6
20260503233047 48 29 7.0 12.0 0.00 0.31 0.00 95 1010.6
20260503232947 48 30 7.0 12.0 0.00 0.31 0.00 95 1010.6
20260503232847 48 30 7.0 12.0 0.00 0.31 0.00 95 1010.6
20260503232747 48 29 7.0 12.0 0.00 0.31 0.00 95 1010.6
20260503232647 48 31 7.0 11.0 0.00 0.31 0.00 95 1010.6
20260503232548 48 32 7.0 11.0 0.00 0.31 0.00 95 1010.6
20260503232508 48 31 7.0 11.0 0.00 0.31 0.00 95 1010.6
20260503232347 48 33 7.0 12.0 0.00 0.31 0.00 95 1010.6
20260503232247 48 32 8.0 13.0 0.00 0.31 0.00 95 1010.6
20260503232147 48 32 8.0 13.0 0.00 0.31 0.00 95 1010.6
20260503232047 48 33 8.0 13.0 0.00 0.31 0.00 95 1010.6
20260503231947 48 32 8.0 13.0 0.00 0.31 0.00 95 1010.6
20260503231847 48 32 9.0 13.0 0.00 0.31 0.00 95 1010.6
20260503231747 48 33 9.0 13.0 0.00 0.31 0.00 95 1010.6
20260503231710 48 32 8.0 13.0 0.00 0.31 0.00 95 1010.6
20260503231548 48 32 8.0 13.0 0.00 0.31 0.00 95 1010.6
20260503231448 48 32 8.0 13.0 0.00 0.31 0.00 95 1010.6
20260503231347 48 31 8.0 13.0 0.00 0.31 0.00 95 1010.6
20260503231247 48 30 8.0 12.0 0.00 0.31 0.00 95 1010.6
20260503231147 48 31 8.0 12.0 0.00 0.31 0.00 95 1010.6
20260503231047 48 30 7.0 12.0 0.00 0.31 0.00 95 1010.6
20260503230947 48 30 7.0 11.0 0.00 0.31 0.00 95 1010.6
20260503230847 48 31 7.0 11.0 0.00 0.31 0.00 95 1010.6
20260503230808 48 29 7.0 11.0 0.00 0.31 0.00 95 1010.6
20260503230647 48 29 7.0 11.0 0.00 0.31 0.00 95 1010.6
20260503230548 48 29 7.0 11.0 0.00 0.31 0.00 95 1010.6
20260503230448 48 30 7.0 11.0 0.00 0.31 0.00 95 1010.6
20260503230348 48 30 7.0 11.0 0.00 0.31 0.00 95 1010.6
20260503230247 48 31 7.0 11.0 0.00 0.31 0.00 95 1010.6
20260503230148 48 31 7.0 11.0 0.00 0.31 0.00 95 1010.6
20260503230047 48 32 7.0 11.0 0.00 0.31 0.00 95 1010.6
20260503225947 48 32 7.0 11.0 0.00 0.31 0.00 95 1010.6
20260503225909 48 32 7.0 11.0 0.00 0.31 0.31 95 1010.6
20260503225747 48 33 7.0 11.0 0.00 0.31 0.31 95 1010.6
20260503225708 48 33 7.0 11.0 0.00 0.31 0.31 95 1010.6
20260503225547 48 34 7.0 11.0 0.00 0.31 0.31 95 1010.6
20260503225448 48 34 7.0 11.0 0.00 0.31 0.31 95 1010.6
20260503225348 48 34 7.0 11.0 0.00 0.31 0.31 95 1010.6
20260503225248 48 33 7.0 11.0 0.00 0.31 0.31 95 1010.6
20260503225209 48 33 7.0 11.0 0.00 0.31 0.31 95 1010.6
20260503225047 48 32 7.0 11.0 0.00 0.31 0.31 95 1010.6
20260503225008 48 32 8.0 11.0 0.00 0.31 0.31 95 1010.6
20260503224847 48 34 8.0 11.0 0.00 0.31 0.31 95 1010.6
20260503224748 48 33 8.0 11.0 0.00 0.31 0.31 95 1010.6
20260503224647 48 33 7.0 11.0 0.00 0.31 0.31 95 1010.6
20260503224609 48 34 8.0 11.0 0.00 0.31 0.31 95 1010.6
20260503224509 48 33 8.0 14.0 0.00 0.31 0.31 95 1010.6
20260503224347 48 32 7.0 14.0 0.00 0.31 0.31 95 1010.6
20260503224247 48 31 7.0 14.0 0.00 0.31 0.31 95 1010.6
20260503224147 48 30 7.0 14.0 0.00 0.31 0.31 95 1010.6
20260503224048 48 28 7.0 14.0 0.00 0.31 0.31 95 1010.6
20260503223947 48 26 7.0 14.0 0.00 0.31 0.31 95 1010.6
20260503223848 48 25 7.0 14.0 0.00 0.32 0.31 95 1010.6
20260503223747 48 26 7.0 14.0 0.00 0.32 0.31 95 1010.6
20260503223647 48 26 7.0 14.0 0.00 0.32 0.31 95 1010.6
20260503223547 48 25 6.0 14.0 0.00 0.32 0.31 95 1010.6
20260503223447 48 27 6.0 10.0 0.00 0.32 0.31 95 1010.6
20260503223409 48 28 7.0 10.0 0.00 0.32 0.31 95 1010.6
20260503223250 48 30 7.0 10.0 0.00 0.33 0.31 95 1010.6
20260503223148 48 32 7.0 10.0 0.00 0.33 0.31 95 1010.6
20260503223048 48 33 7.0 13.0 0.00 0.33 0.31 95 1010.6
20260503222947 48 33 7.0 13.0 0.00 0.33 0.31 95 1010.6
20260503222847 48 34 7.0 13.0 0.00 0.33 0.31 95 1010.6
20260503222748 48 33 7.0 13.0 0.00 0.33 0.31 95 1010.6
20260503222708 48 33 8.0 13.0 0.00 0.34 0.31 95 1010.6
20260503222609 48 34 8.0 13.0 0.00 0.34 0.31 95 1010.6
20260503222448 48 34 8.0 13.0 0.00 0.34 0.31 95 1010.6
20260503222348 48 32 9.0 13.0 0.00 0.34 0.31 95 1010.6
20260503222308 48 32 9.0 13.0 0.00 0.34 0.31 95 1010.6
20260503222147 48 31 9.0 14.0 0.00 0.34 0.31 95 1010.6
20260503222108 48 31 9.0 14.0 0.00 0.35 0.31 95 1010.6
20260503221947 48 29 10.0 14.0 0.00 0.35 0.31 95 1010.6
20260503221849 48 27 10.0 14.0 0.00 0.35 0.31 95 1010.6
20260503221809 48 27 10.0 14.0 0.00 0.35 0.31 95 1010.6
20260503221647 48 23 10.0 16.0 0.00 0.35 0.31 95 1010.6
20260503221548 48 21 10.0 16.0 0.00 0.35 0.31 95 1010.6
20260503221447 48 20 10.0 16.0 0.00 0.35 0.31 95 1010.6
20260503221347 48 19 10.0 16.0 0.00 0.35 0.31 95 1010.6
20260503221247 48 18 10.0 16.0 0.00 0.35 0.31 95 1010.6
20260503221147 48 17 10.0 16.0 0.00 0.35 0.31 95 1010.6
20260503221108 48 17 10.0 16.0 0.00 0.36 0.31 95 1010.6
20260503220947 48 17 10.0 16.0 0.00 0.36 0.31 94 1010.6
20260503220847 48 17 10.0 16.0 0.00 0.36 0.31 94 1010.6
20260503220747 48 19 9.0 15.0 0.00 0.36 0.31 94 1010.6
20260503220647 48 20 9.0 14.0 0.00 0.36 0.31 94 1010.6
20260503220547 48 21 9.0 14.0 0.00 0.37 0.31 95 1010.6
20260503220447 49 21 8.0 14.0 0.00 0.37 0.31 95 1010.6
20260503220347 49 21 8.0 14.0 0.00 0.37 0.31 95 1010.6
20260503220247 49 20 8.0 14.0 0.00 0.37 0.31 95 1010.6
20260503220147 49 19 8.0 12.0 0.00 0.38 0.31 95 1010.6
20260503220047 49 19 8.0 12.0 0.00 0.38 0.31 95 1010.6
20260503220009 49 18 8.0 12.0 0.00 0.38 0.31 95 1010.6
20260503215848 49 18 9.0 12.0 0.00 0.39 0.31 95 1010.6
20260503215747 49 17 9.0 13.0 0.00 0.39 0.31 95 1010.6
20260503215708 49 17 9.0 13.0 0.00 0.39 0.31 95 1010.6
20260503215547 49 17 9.0 13.0 0.00 0.39 0.31 95 1010.6
20260503215447 49 16 9.0 13.0 0.00 0.39 0.31 95 1010.6
20260503215347 49 17 9.0 13.0 0.00 0.40 0.31 95 1010.6
20260503215247 49 19 9.0 13.0 0.00 0.40 0.31 94 1010.6
20260503215147 49 20 9.0 13.0 0.00 0.40 0.31 94 1010.6
20260503215047 49 20 9.0 13.0 0.00 0.40 0.31 94 1010.6
20260503215010 49 20 9.0 13.0 0.00 0.40 0.31 94 1010.6
20260503214849 49 20 8.0 13.0 0.00 0.41 0.31 94 1010.6
20260503214748 49 21 8.0 12.0 0.00 0.41 0.31 94 1010.6
20260503214648 49 21 8.0 12.0 0.00 0.41 0.31 94 1010.6
20260503214547 49 21 8.0 12.0 0.00 0.42 0.31 94 1010.6
20260503214508 49 22 9.0 12.0 0.00 0.42 0.31 94 1010.6
20260503214347 49 21 9.0 13.0 0.00 0.42 0.31 94 1010.6
20260503214247 49 20 9.0 13.0 0.00 0.42 0.31 94 1010.6
20260503214147 49 20 9.0 14.0 0.00 0.43 0.31 94 1010.6
20260503214108 49 20 9.0 14.0 0.00 0.43 0.31 94 1010.6
20260503213948 49 20 10.0 14.0 0.00 0.43 0.31 94 1010.6
20260503213847 49 20 10.0 14.0 0.00 0.43 0.31 94 1010.6
20260503213747 49 20 10.0 14.0 0.00 0.43 0.31 94 1010.6
20260503213647 49 20 10.0 14.0 0.00 0.43 0.31 94 1010.6
20260503213547 49 20 10.0 14.0 0.00 0.44 0.31 94 1010.6
20260503213447 49 19 10.0 14.0 0.00 0.44 0.31 94 1010.6
20260503213348 49 18 10.0 14.0 0.00 0.45 0.31 94 1010.6
20260503213247 49 18 10.0 14.0 0.00 0.45 0.31 94 1010.6
20260503213147 49 17 10.0 14.0 0.00 0.45 0.31 94 1010.6
20260503213047 49 16 10.0 14.0 0.00 0.46 0.31 94 1010.6
20260503212947 49 16 10.0 14.0 0.00 0.46 0.31 94 1010.6
20260503212847 49 15 10.0 14.0 0.00 0.46 0.31 94 1010.6
20260503212747 49 15 10.0 14.0 0.00 0.46 0.31 94 1010.6
20260503212647 49 14 10.0 14.0 0.00 0.46 0.31 94 1010.6
20260503212547 49 13 9.0 14.0 0.00 0.47 0.31 94 1010.6
20260503212447 49 14 9.0 13.0 0.00 0.48 0.31 94 1010.6
20260503212347 49 15 9.0 13.0 0.00 0.48 0.31 93 1010.6
20260503212247 49 16 9.0 13.0 0.00 0.48 0.31 93 1010.6
20260503212148 49 16 9.0 13.0 0.00 0.48 0.31 93 1010.6
20260503212048 49 16 9.0 13.0 0.00 0.48 0.31 93 1010.6
20260503211949 50 17 9.0 13.0 0.00 0.48 0.31 93 1010.6
20260503211848 49 17 9.0 13.0 0.00 0.48 0.31 93 1010.6
20260503211809 50 17 9.0 13.0 0.00 0.48 0.31 93 1010.6
20260503211647 50 17 9.0 13.0 0.00 0.48 0.31 93 1010.6
20260503211547 50 18 9.0 13.0 0.00 0.48 0.31 93 1010.6
20260503211448 50 17 9.0 13.0 0.00 0.48 0.31 93 1010.6
20260503211347 50 17 9.0 13.0 0.00 0.48 0.31 93 1010.6
20260503211247 50 16 9.0 13.0 0.00 0.48 0.31 93 1010.6
20260503211148 50 17 8.0 13.0 0.00 0.48 0.31 93 1010.6
20260503211048 50 16 8.0 13.0 0.00 0.48 0.31 93 1010.6
20260503210947 50 15 8.0 13.0 0.00 0.48 0.31 93 1010.6
20260503210847 50 16 8.0 13.0 0.00 0.48 0.31 93 1010.6
20260503210747 50 15 8.0 11.0 0.00 0.48 0.31 93 1010.6
20260503210709 50 16 8.0 10.0 0.00 0.48 0.31 93 1010.6
20260503210549 50 17 7.0 10.0 0.00 0.48 0.31 93 1010.6
20260503210508 50 17 7.0 9.0 0.00 0.48 0.31 93 1010.6
20260503210347 50 18 7.0 9.0 0.00 0.48 0.31 93 1010.6
20260503210248 50 18 7.0 9.0 0.00 0.48 0.31 93 1010.6
20260503210149 50 18 7.0 10.0 0.00 0.48 0.31 93 1010.6
20260503210047 50 19 7.0 10.0 0.00 0.48 0.31 93 1010.6
20260503205947 50 20 7.0 10.0 0.00 0.48 0.31 93 1010.6
20260503205908 50 20 8.0 10.0 0.00 0.48 0.31 93 1010.6
20260503205747 50 20 8.0 11.0 0.00 0.48 0.31 93 1010.6
20260503205708 50 20 8.0 11.0 0.00 0.48 0.31 93 1010.6
20260503205549 50 20 8.0 11.0 0.00 0.48 0.31 93 1010.6
20260503205447 50 20 8.0 11.0 0.00 0.48 0.31 93 1010.6
20260503205347 50 20 8.0 12.0 0.00 0.48 0.31 92 1010.6
20260503205247 50 20 8.0 12.0 0.00 0.48 0.31 92 1010.6
20260503205147 50 21 8.0 12.0 0.00 0.48 0.31 92 1010.6
20260503205047 50 21 8.0 12.0 0.00 0.48 0.31 92 1010.6
20260503204948 50 21 7.0 12.0 0.00 0.48 0.31 92 1010.6
20260503204909 50 21 7.0 12.0 0.00 0.48 0.31 92 1010.6
20260503204747 50 21 7.0 12.0 0.00 0.48 0.31 92 1010.6
20260503204709 50 21 7.0 12.0 0.00 0.48 0.31 92 1010.6
20260503204547 50 20 6.0 12.0 0.00 0.48 0.31 92 1010.6
20260503204447 50 20 6.0 12.0 0.00 0.48 0.31 92 1010.6
20260503204347 50 20 6.0 9.0 0.00 0.48 0.31 92 1010.6
20260503204248 50 20 6.0 9.0 0.00 0.48 0.31 92 1010.6
20260503204208 50 20 6.0 9.0 0.00 0.48 0.31 92 1010.6
20260503204048 50 20 6.0 9.0 0.00 0.48 0.31 92 1010.6
20260503203947 50 20 6.0 9.0 0.00 0.48 0.31 92 1010.6
20260503203847 50 20 6.0 9.0 0.00 0.48 0.31 92 1010.6
20260503203749 50 20 6.0 9.0 0.00 0.48 0.31 92 1010.6
20260503203709 50 20 6.0 9.0 0.00 0.48 0.31 92 1010.6
20260503203547 50 21 6.0 9.0 0.00 0.48 0.31 92 1010.6
20260503203448 50 20 7.0 9.0 0.00 0.48 0.31 92 1010.6
20260503203408 50 20 7.0 9.0 0.00 0.48 0.31 92 1010.6
20260503203248 50 19 6.0 9.0 0.00 0.48 0.31 92 1010.6
20260503203148 50 19 6.0 9.0 0.00 0.48 0.31 92 1010.6
20260503203048 50 18 6.0 9.0 0.00 0.48 0.31 92 1010.6
20260503202948 50 18 6.0 9.0 0.00 0.48 0.31 92 1010.6
20260503202847 50 17 6.0 9.0 0.00 0.48 0.31 92 1010.6
20260503202748 50 16 6.0 9.0 0.00 0.48 0.31 92 1010.6
20260503202648 50 15 6.0 9.0 0.00 0.48 0.31 92 1010.6
20260503202547 50 15 6.0 8.0 0.00 0.48 0.31 92 1010.6
20260503202447 50 15 6.0 9.0 0.00 0.48 0.31 92 1010.6
20260503202410 50 15 6.0 9.0 0.00 0.48 0.31 92 1010.6
20260503202248 50 15 6.0 10.0 0.00 0.48 0.31 92 1010.6
20260503202147 50 15 7.0 10.0 0.00 0.48 0.31 92 1010.6
20260503202047 50 16 7.0 10.0 0.00 0.48 0.31 92 1010.6
20260503202009 50 16 7.0 10.0 0.00 0.48 0.31 92 1010.6
20260503201848 50 16 7.0 10.0 0.00 0.48 0.31 92 1010.6
20260503201747 50 16 7.0 10.0 0.00 0.48 0.31 92 1010.6
20260503201647 50 16 7.0 10.0 0.00 0.48 0.31 92 1010.6
20260503201549 50 17 7.0 10.0 0.00 0.48 0.31 92 1010.6
20260503201448 50 17 7.0 10.0 0.00 0.48 0.31 92 1010.6
20260503201348 50 18 7.0 10.0 0.00 0.48 0.31 92 1010.6
20260503201247 50 19 6.0 10.0 0.00 0.48 0.31 92 1010.6
20260503201148 50 19 6.0 9.0 0.00 0.48 0.31 91 1010.6
20260503201048 50 19 6.0 8.0 0.00 0.48 0.31 91 1010.6
20260503200948 50 20 6.0 8.0 0.00 0.48 0.31 91 1010.6
20260503200847 50 20 6.0 9.0 0.00 0.48 0.31 91 1010.6
20260503200747 50 19 6.0 9.0 0.00 0.48 0.31 91 1010.6
20260503200647 50 19 6.0 9.0 0.00 0.48 0.31 91 1010.6
20260503200549 50 19 6.0 9.0 0.00 0.48 0.31 91 1010.6
20260503200448 50 17 6.0 9.0 0.00 0.48 0.31 91 1010.6
20260503200348 50 16 6.0 9.0 0.00 0.48 0.31 91 1010.6
20260503200248 50 17 6.0 9.0 0.00 0.48 0.31 91 1010.6
20260503200209 50 17 6.0 9.0 0.00 0.48 0.31 91 1010.6
20260503200048 50 19 6.0 9.0 0.00 0.48 0.31 91 1010.6
20260503195947 50 20 6.0 9.0 0.00 0.48 0.31 91 1010.6
20260503195848 50 22 6.0 9.0 0.00 0.48 0.31 91 1010.6
20260503195808 50 24 5.0 8.0 0.00 0.48 0.31 91 1010.6
20260503195647 50 27 5.0 8.0 0.00 0.48 0.31 91 1010.6
20260503195608 50 28 5.0 8.0 0.00 0.48 0.31 91 1010.6
20260503195508 50 31 5.0 8.0 0.00 0.48 0.31 91 1010.6
20260503195349 50 33 5.0 8.0 0.00 0.48 0.31 91 1010.6
20260503195310 51 33 4.0 8.0 0.00 0.48 0.31 91 1010.6
20260503195148 51 35 4.0 8.0 0.00 0.48 0.31 91 1010.6
20260503195110 51 34 4.0 8.0 0.00 0.48 0.31 91 1010.6
20260503194947 51 35 5.0 8.0 0.00 0.48 0.31 91 1010.6
20260503194909 51 35 5.0 8.0 0.00 0.48 0.31 91 1010.6
20260503194747 51 34 5.0 8.0 0.00 0.48 0.31 91 1010.6
20260503194647 51 34 5.0 8.0 0.00 0.48 0.31 91 1010.6
20260503194547 51 33 5.0 8.0 0.00 0.48 0.31 91 1010.6
20260503194447 51 33 5.0 8.0 0.00 0.48 0.31 91 1010.6
20260503194348 51 34 5.0 8.0 0.00 0.48 0.31 91 1010.6
20260503194248 51 34 5.0 8.0 0.00 0.48 0.31 91 1010.6
20260503194147 51 34 5.0 8.0 0.00 0.48 0.31 91 1010.6
20260503194047 51 35 5.0 8.0 0.00 0.48 0.31 91 1010.6
20260503193948 51 37 5.0 8.0 0.00 0.48 0.31 91 1010.6
20260503193847 51 39 5.0 8.0 0.00 0.48 0.31 91 1010.6
20260503193747 51 40 5.0 8.0 0.00 0.48 0.31 90 1010.6
20260503193647 51 40 5.0 8.0 0.00 0.48 0.31 90 1010.6
20260503193547 51 42 5.0 8.0 0.00 0.48 0.31 90 1010.6
20260503193447 51 42 5.0 8.0 0.00 0.48 0.31 90 1010.6
20260503193348 51 43 5.0 8.0 0.00 0.48 0.31 90 1010.6
20260503193247 51 44 5.0 8.0 0.00 0.48 0.31 90 1010.6
20260503193147 51 45 5.0 8.0 0.00 0.48 0.31 90 1010.6
20260503193050 51 44 5.0 8.0 0.00 0.48 0.31 90 1010.6
20260503192947 51 43 5.0 8.0 0.00 0.48 0.31 90 1010.6
20260503192848 51 43 5.0 8.0 0.00 0.48 0.31 90 1010.6
20260503192747 51 42 5.0 8.0 0.00 0.48 0.31 90 1010.6
20260503192647 51 43 5.0 8.0 0.00 0.48 0.31 90 1010.6
20260503192547 51 42 5.0 8.0 0.00 0.48 0.31 90 1010.6
20260503192448 51 43 5.0 8.0 0.00 0.48 0.31 90 1010.6
20260503192347 51 42 5.0 8.0 0.00 0.48 0.31 90 1010.6
20260503192308 51 41 5.0 8.0 0.00 0.48 0.31 90 1010.6
20260503192209 51 40 4.0 8.0 0.00 0.48 0.31 90 1010.6
20260503192047 51 41 4.0 8.0 0.00 0.48 0.31 90 1010.6
20260503191947 51 43 4.0 8.0 0.00 0.48 0.31 90 1010.6
20260503191848 51 43 4.0 8.0 0.00 0.48 0.31 90 1010.6
20260503191748 51 43 4.0 8.0 0.00 0.48 0.31 90 1010.6
20260503191648 51 40 4.0 7.0 0.00 0.48 0.31 90 1010.6
20260503191549 51 40 4.0 7.0 0.00 0.48 0.31 90 1010.6
20260503191448 51 40 4.0 8.0 0.00 0.48 0.31 90 1010.6
20260503191347 51 42 4.0 8.0 0.00 0.48 0.31 90 1010.6
20260503191309 51 42 4.0 8.0 0.00 0.48 0.31 90 1010.6
20260503191148 51 43 4.0 8.0 0.00 0.48 0.31 90 1010.6
20260503191109 51 43 5.0 8.0 0.00 0.48 0.31 90 1010.6
20260503190949 51 41 5.0 8.0 0.00 0.48 0.31 90 1010.6
20260503190847 51 43 5.0 8.0 0.00 0.48 0.31 90 1010.6
20260503190748 51 45 5.0 9.0 0.00 0.48 0.31 90 1010.6
20260503190648 51 46 5.0 9.0 0.00 0.48 0.31 90 1010.6
20260503190547 51 47 5.0 9.0 0.00 0.48 0.31 90 1010.6
20260503190448 51 47 5.0 9.0 0.00 0.48 0.31 90 1010.6
20260503190347 51 46 5.0 9.0 0.00 0.48 0.31 90 1010.6
20260503190248 51 45 5.0 9.0 0.00 0.48 0.31 90 1010.6
20260503190147 51 46 5.0 9.0 0.00 0.48 0.31 90 1010.6
20260503190048 51 45 5.0 9.0 0.00 0.48 0.31 90 1010.6
20260503185947 51 45 5.0 9.0 0.00 0.48 0.31 90 1010.6
20260503185908 51 44 5.0 9.0 0.00 0.48 0.31 90 1010.6
20260503185748 51 41 5.0 9.0 0.00 0.48 0.31 90 1010.6
20260503185647 51 39 5.0 9.0 0.00 0.48 0.31 90 1010.6
20260503185547 51 38 5.0 9.0 0.00 0.48 0.31 90 1010.6
20260503185447 51 37 5.0 9.0 0.00 0.48 0.31 90 1010.6
20260503185409 51 37 5.0 9.0 0.00 0.48 0.31 90 1010.6
20260503185248 51 36 5.0 9.0 0.00 0.48 0.31 90 1010.6
20260503185147 51 37 5.0 9.0 0.00 0.48 0.31 90 1010.6
20260503185108 51 37 5.0 9.0 0.00 0.48 0.31 90 1010.6
20260503184947 51 37 5.0 9.0 0.00 0.48 0.31 90 1010.6
20260503184847 51 38 5.0 9.0 0.00 0.48 0.31 90 1010.6
20260503184810 51 39 5.0 9.0 0.00 0.48 0.31 90 1010.6
20260503184647 51 41 5.0 9.0 0.00 0.48 0.31 90 1010.6
20260503184549 51 43 5.0 9.0 0.00 0.48 0.31 90 1010.6
20260503184447 51 44 5.0 9.0 0.00 0.48 0.31 90 1010.6
20260503184347 51 44 5.0 9.0 0.00 0.48 0.31 90 1010.6
20260503184248 51 46 5.0 9.0 0.00 0.48 0.31 90 1010.6
20260503184147 51 44 5.0 9.0 0.00 0.48 0.31 90 1010.6
20260503184048 51 44 5.0 8.0 0.00 0.48 0.31 90 1010.6
20260503183947 51 44 5.0 9.0 0.00 0.48 0.31 90 1010.6
20260503183847 51 43 5.0 9.0 0.00 0.48 0.31 90 1010.6
20260503183748 51 41 5.0 9.0 0.00 0.48 0.31 90 1010.6
20260503183709 51 42 5.0 9.0 0.00 0.48 0.31 90 1010.6
20260503183547 51 40 5.0 9.0 0.00 0.48 0.31 90 1010.6
20260503183447 51 39 5.0 9.0 0.00 0.48 0.31 90 1010.6
20260503183348 51 38 5.0 9.0 0.00 0.48 0.31 90 1010.6
20260503183248 51 36 5.0 9.0 0.00 0.48 0.31 90 1010.6
20260503183149 51 36 5.0 9.0 0.00 0.48 0.31 90 1010.6
20260503183048 51 36 5.0 9.0 0.00 0.48 0.31 90 1010.6
20260503182947 51 36 4.0 9.0 0.00 0.48 0.31 90 1010.6
20260503182909 51 37 4.0 7.0 0.00 0.48 0.31 90 1010.6
20260503182808 51 37 5.0 7.0 0.00 0.48 0.31 90 1010.6
20260503182647 51 39 5.0 9.0 0.00 0.48 0.31 90 1010.6
20260503182548 51 40 5.0 9.0 0.00 0.48 0.31 90 1010.6
20260503182449 51 40 5.0 9.0 0.00 0.48 0.31 90 1010.6
20260503182348 51 40 5.0 9.0 0.00 0.48 0.31 89 1010.6
20260503182247 51 42 5.0 9.0 0.00 0.48 0.31 89 1010.6
20260503182210 51 43 6.0 9.0 0.00 0.48 0.31 89 1010.6
20260503182108 51 43 6.0 9.0 0.00 0.48 0.31 89 1010.6
20260503181948 51 43 6.0 9.0 0.00 0.48 0.31 89 1010.6
20260503181848 51 42 6.0 9.0 0.00 0.48 0.31 89 1010.6
20260503181748 51 41 6.0 9.0 0.00 0.48 0.31 89 1010.6
20260503181648 51 38 6.0 9.0 0.00 0.48 0.31 89 1010.6
20260503181547 51 37 6.0 9.0 0.00 0.48 0.31 90 1010.6
20260503181448 51 37 6.0 9.0 0.00 0.48 0.31 90 1010.6
20260503181348 51 36 6.0 9.0 0.00 0.48 0.31 90 1010.6
20260503181248 51 35 6.0 9.0 0.00 0.48 0.31 90 1010.6
20260503181147 51 33 6.0 9.0 0.00 0.48 0.31 90 1010.6
20260503181110 51 32 6.0 9.0 0.00 0.48 0.31 90 1010.6
20260503181009 51 32 6.0 9.0 0.00 0.48 0.31 90 1010.6
20260503180909 51 33 6.0 9.0 0.00 0.48 0.31 90 1010.6
20260503180747 51 33 6.0 9.0 0.00 0.48 0.31 90 1010.6
20260503180647 51 34 6.0 9.0 0.00 0.48 0.31 90 1010.6
20260503180548 51 35 6.0 11.0 0.00 0.48 0.31 90 1010.6
20260503180448 51 34 6.0 11.0 0.00 0.48 0.31 90 1010.6
20260503180348 51 34 7.0 11.0 0.00 0.48 0.31 90 1010.6
20260503180310 52 34 7.0 11.0 0.00 0.48 0.31 90 1010.6
20260503180147 51 36 7.0 11.0 0.00 0.48 0.31 90 1010.6
20260503180109 51 36 7.0 11.0 0.00 0.48 0.31 90 1010.6
20260503180009 51 37 7.0 11.0 0.00 0.48 0.31 90 1010.6
20260503175848 51 37 7.0 11.0 0.00 0.48 0.31 90 1010.6
20260503175747 51 37 6.0 11.0 0.00 0.48 0.31 90 1010.6
20260503175647 51 37 6.0 11.0 0.00 0.48 0.31 90 1010.6
20260503175547 52 38 6.0 11.0 0.00 0.48 0.31 90 1010.6
20260503175447 51 41 6.0 11.0 0.00 0.48 0.31 90 1010.6
20260503175409 52 42 6.0 10.0 0.00 0.48 0.31 90 1010.6
20260503175247 52 43 6.0 10.0 0.00 0.48 0.31 90 1010.6
20260503175148 51 42 5.0 10.0 0.00 0.48 0.31 90 1010.6
20260503175047 52 42 5.0 9.0 0.00 0.48 0.31 90 1010.6
20260503174948 51 43 5.0 9.0 0.00 0.48 0.31 90 1010.6
20260503174847 52 43 5.0 9.0 0.00 0.48 0.31 90 1010.6
20260503174748 51 43 6.0 9.0 0.00 0.48 0.31 90 1010.6
20260503174647 51 42 6.0 9.0 0.00 0.48 0.31 90 1010.6
20260503174608 52 41 6.0 9.0 0.00 0.48 0.31 90 1010.6
20260503174509 52 42 6.0 9.0 0.00 0.48 0.31 90 1010.6
20260503174347 51 40 6.0 10.0 0.00 0.48 0.31 90 1010.6
20260503174247 51 40 6.0 11.0 0.00 0.48 0.31 90 1010.6
20260503174148 51 40 6.0 11.0 0.00 0.48 0.31 90 1010.6
20260503174048 51 40 6.0 11.0 0.00 0.48 0.31 90 1010.6
20260503173948 51 39 6.0 11.0 0.00 0.48 0.31 90 1010.6
20260503173847 51 38 6.0 11.0 0.00 0.48 0.31 90 1010.6
20260503173748 51 39 6.0 11.0 0.00 0.48 0.31 90 1010.6
20260503173648 51 40 6.0 11.0 0.00 0.48 0.31 90 1010.6
20260503173548 52 39 6.0 11.0 0.00 0.48 0.31 90 1010.6
20260503173448 52 39 6.0 11.0 0.00 0.48 0.31 91 1010.6
20260503173347 52 40 6.0 11.0 0.00 0.48 0.31 91 1010.6
20260503173247 52 39 6.0 11.0 0.00 0.48 0.31 91 1010.6
20260503173148 52 39 6.0 11.0 0.00 0.48 0.31 91 1010.6
20260503173048 52 39 6.0 11.0 0.00 0.48 0.31 91 1010.6
20260503172948 51 38 6.0 11.0 0.00 0.48 0.31 91 1010.6
20260503172847 51 37 6.0 11.0 0.00 0.48 0.31 91 1010.6
20260503172748 51 36 6.0 11.0 0.00 0.48 0.31 91 1010.6
20260503172708 52 35 6.0 11.0 0.00 0.48 0.31 91 1010.6
20260503172548 52 35 6.0 10.0 0.00 0.48 0.31 91 1010.6
20260503172448 52 35 6.0 10.0 0.00 0.48 0.31 91 1010.6
20260503172347 52 35 6.0 10.0 0.00 0.48 0.31 91 1010.6
20260503172247 52 35 6.0 10.0 0.00 0.48 0.31 91 1010.6
20260503172147 51 35 6.0 10.0 0.00 0.48 0.31 91 1010.6
20260503172109 51 37 6.0 10.0 0.00 0.48 0.31 91 1010.6
20260503171948 51 38 6.0 10.0 0.00 0.48 0.31 91 1010.6
20260503171847 51 40 6.0 10.0 0.00 0.48 0.31 91 1010.6
20260503171747 51 41 6.0 10.0 0.00 0.48 0.31 91 1010.6
20260503171648 51 40 6.0 11.0 0.00 0.48 0.31 91 1010.6
20260503171547 51 38 7.0 11.0 0.00 0.48 0.31 91 1010.6
20260503171509 51 38 7.0 11.0 0.00 0.48 0.31 91 1010.6
20260503171348 51 36 7.0 12.0 0.00 0.48 0.31 91 1010.6
20260503171308 51 36 8.0 13.0 0.00 0.48 0.31 91 1010.6
20260503171148 51 36 8.0 13.0 0.00 0.48 0.31 91 1010.6
20260503171047 51 36 8.0 13.0 0.00 0.48 0.31 91 1010.6
20260503170947 51 35 8.0 13.0 0.00 0.48 0.31 91 1010.6
20260503170847 51 35 8.0 13.0 0.00 0.48 0.31 91 1010.6
20260503170748 51 35 8.0 13.0 0.00 0.48 0.31 91 1010.6
20260503170709 51 36 8.0 13.0 0.00 0.48 0.31 91 1010.6
20260503170608 51 37 7.0 13.0 0.00 0.48 0.31 91 1010.6
20260503170448 51 39 7.0 13.0 0.00 0.48 0.31 91 1010.6
20260503170348 51 41 7.0 13.0 0.00 0.48 0.31 91 1010.6
20260503170248 52 42 6.0 10.0 0.00 0.48 0.31 91 1010.6
20260503170149 52 45 6.0 10.0 0.00 0.48 0.31 91 1010.6